sat.trackr.live / text

‹ back to catalog

STARLINK-30914

NORAD 58377 · 2023-178D

PAYLOAD ACTIVE UNKNOWN

§ Identity

Operator
Country
US
Launch date
2023-11-20
Launch site
AFWTR
Launch vehicle
Mass (kg)
RCS (m²)

Purposes: comms

External: N2YO · Heavens-Above · Gunter

§ Orbital elements

Epoch: 2026-05-24T21:37:26.691168Z

Period
93.85 min
Inclination
53.1601°
Eccentricity
0.0000970
Mean motion
15.34400150 rev/d
Perigee alt
462.0 km
Apogee alt
463.4 km
Semi-major
6,840.8 km
B*
-4.3184e-5
RAAN
6.0809°
Arg perigee
70.7982°
Mean anomaly
289.3126°
Rev number
14,157

§ Raw data

STARLINK-309141 58377U 23178D   26144.90100337 -.00001835  00000+0 -43184-4 0  99932 58377  53.1601   6.0809 0000970  70.7982 289.3126 15.34400150141572

JSON: /api/v1/satellites/58377 · /tle

For live sub-satellite position, see the globe view (requires WebGL).

§ Visibility from observer

Set your observer location to see the next 7 days of passes ≥ 10°. The values pass through the URL so the page stays shareable.

No JS? Fill the form by hand. The geolocation button needs JavaScript.